This is the latest recevied weather packets stored in our database for station/object N8AMF. If no packets are shown the sender has not sent any weather packets the latest 10 day(s).
| Time | Temp. | Humidity | Pressure | Rain* | Wind** | Luminosity | Snow |
|---|---|---|---|---|---|---|---|
| 1777154443 | 9.44° C | 92% | 1013.7 hPa | 0 mm | - | 97 W/m² | - |
| 1777154138 | 9.44° C | 92% | 1013.5 hPa | 0 mm | - | 96 W/m² | - |
| 1777153835 | 9.44° C | 91% | 1013.5 hPa | 0 mm | - | 78 W/m² | - |
| 1777153531 | 9.44° C | 91% | 1013.3 hPa | 0 mm | - | 79 W/m² | - |
| 1777153226 | 9.44° C | 91% | 1013.1 hPa | 0 mm | - | 85 W/m² | - |
| 1777152924 | 9.44° C | 91% | 1013 hPa | 0 mm | - | 91 W/m² | - |
| 1777152620 | 9.44° C | 91% | 1013.1 hPa | 0 mm | - | 90 W/m² | - |
| 1777152318 | 9.44° C | 91% | 1012.9 hPa | 0 mm | - | 89 W/m² | - |
| 1777152012 | 9.44° C | 91% | 1012.8 hPa | 0 mm | - | 90 W/m² | - |
| 1777151708 | 9.44° C | 90% | 1012.7 hPa | 0 mm | - | 91 W/m² | - |
| 1777151405 | 9.44° C | 90% | 1012.7 hPa | 0 mm | - | 98 W/m² | - |
| 1777151101 | 9.44° C | 90% | 1012.6 hPa | 0 mm | - | 107 W/m² | - |
| 1777150795 | 9.44° C | 90% | 1012.5 hPa | 0 mm | - | 109 W/m² | - |
| 1777150490 | 9.44° C | 90% | 1012.4 hPa | 0 mm | - | 135 W/m² | - |
| 1777150187 | 10° C | 90% | 1012.7 hPa | 0 mm | - | 141 W/m² | - |
| 1777149885 | 9.44° C | 90% | 1012.4 hPa | 0 mm | - | 157 W/m² | - |
| 1777149580 | 9.44° C | 90% | 1012.6 hPa | 0 mm | - | 153 W/m² | - |
| 1777149278 | 9.44° C | 89% | 1012.5 hPa | 0 mm | - | 159 W/m² | - |
| 1777148972 | 9.44° C | 89% | 1012.4 hPa | 0 mm | - | 184 W/m² | - |
| 1777148668 | 10° C | 90% | 1012.5 hPa | 0 mm | - | 210 W/m² | - |
| 1777148364 | 9.44° C | 90% | 1012.3 hPa | 0 mm | - | 206 W/m² | - |
| 1777148060 | 10° C | 90% | 1012.4 hPa | 0 mm | - | 198 W/m² | - |
| 1777147757 | 9.44° C | 90% | 1012.6 hPa | 0 mm | - | 223 W/m² | - |
| 1777147453 | 10° C | 91% | 1012.6 hPa | 0 mm | - | 234 W/m² | - |
| 1777147148 | 9.44° C | 91% | 1012.6 hPa | 0 mm | - | 218 W/m² | - |
* Rain latest hour (hover to see other rain measurements)
** Current wind speed in m/s (hover to see current wind gust speed)